Location: Newark
(25.6108°S, 54.5803°W)
Time: 08:07:30
(UTC+00:00)

Tiros 1 - Pass Details

Date: 27 October 2020
Orbit: 630 x 664 km, 48.4° (Epoch: 29 November)

Event Time Altitude Azimuth Distance (km) Brightness Sun altitude
Rises 19:03:19 0° 280° (W) 2,980 11.5 36.7°
Reaches altitude 10° 19:06:08 10° 264° (W) 2,079 11.1 36.1°
Maximum altitude 19:09:49 21° 214° (SW) 1,472 9.6 35.3°
Drops below altitude 10° 19:13:31 10° 164° (SSE) 2,099 9.7 34.4°
Sets 19:16:24 0° 148° (SSE) 3,018 10.3 33.8°
